QPF
0.00 0.02 0.07 0.07 0.07 0.05 0.00 0.00 0.00 0.00 0.00 0.00 0.00 0.00 0.00 0.00 0.00 0.01 0.00 0.00 0.00 0.01 0.01 0.01 0.02 0.00 0.00 0.01 0.03 0.03 0.06 0.10 0.10 0.10 0.15 0.07 0.01 0.00 0.00 0.01 0.01 0.01 0.01 0.02 0.01 0.01 0.00 0.00 0.00
0.01 0.04 0.14 0.14 0.13 0.01 0.00 0.00 0.00 0.00 0.00 0.00 0.00 0.00 0.00 0.00 0.00 0.00 0.00 0.01 0.01 0.01 0.03 0.06 0.05 0.01 0.01 0.02 0.06 0.05 0.09 0.14 0.17 0.13 0.08 0.02 0.00 0.00 0.00 0.04 0.04 0.02 0.01 0.01 0.01 0.01 0.01 0.00 0.00
0.00 0.01 0.12 0.17 0.04 0.00 0.00 0.00 0.00 0.00 0.00 0.00 0.00 0.00 0.00 0.00 0.00 0.00 0.00 0.00 0.00 0.01 0.06 0.10 0.06 0.03 0.03 0.03 0.06 0.10 0.12 0.12 0.13 0.10 0.04 0.01 0.01 0.00 0.01 0.04 0.04 0.03 0.02 0.01 0.01 0.00 0.00 0.00 0.00
0.01 0.07 0.17 0.11 0.00 0.00 0.00 0.00 0.00 0.00 0.00 0.00 0.00 0.00 0.00 0.00 0.00 0.00 0.00 0.00 0.01 0.02 0.03 0.05 0.05 0.05 0.04 0.06 0.09 0.11 0.09 0.06 0.08 0.10 0.07 0.03 0.06 0.05 0.02 0.01 0.01 0.02 0.02 0.01 0.00 0.00 0.00 0.00 0.00
0.02 0.13 0.13 0.04 0.00 0.00 0.00 0.00 0.00 0.00 0.00 0.00 0.00 0.00 0.00 0.00 0.00 0.00 0.00 0.00 0.00 0.01 0.01 0.03 0.06 0.05 0.04 0.06 0.09 0.11 0.04 0.02 0.09 0.17 0.15 0.06 0.09 0.11 0.09 0.03 0.02 0.01 0.02 0.02 0.01 0.00 0.00 0.00 0.00
0.09 0.19 0.13 0.04 0.00 0.00 0.00 0.00 0.00 0.00 0.00 0.00 0.00 0.00 0.01 0.00 0.00 0.00 0.00 0.00 0.00 0.00 0.00 0.01 0.04 0.04 0.03 0.03 0.07 0.09 0.04 0.04 0.09 0.13 0.13 0.12 0.07 0.10 0.05 0.02 0.02 0.01 0.02 0.04 0.02 0.00 0.00 0.00 0.00
0.15 0.20 0.10 0.02 0.00 0.00 0.00 0.00 0.00 0.00 0.00 0.00 0.00 0.00 0.01 0.01 0.00 0.00 0.00 0.00 0.00 0.00 0.00 0.01 0.01 0.02 0.03 0.03 0.03 0.05 0.06 0.07 0.08 0.06 0.08 0.13 0.04 0.03 0.02 0.01 0.00 0.01 0.02 0.04 0.01 0.00 0.00 0.00 0.00
0.10 0.19 0.13 0.02 0.00 0.00 0.00 0.00 0.00 0.00 0.00 0.00 0.00 0.00 0.01 0.01 0.00 0.00 0.00 0.00 0.00 0.01 0.02 0.01 0.01 0.01 0.02 0.04 0.04 0.02 0.01 0.02 0.03 0.03 0.06 0.09 0.02 0.01 0.01 0.00 0.00 0.01 0.02 0.04 0.01 0.00 0.00 0.00 0.00
0.08 0.11 0.04 0.01 0.00 0.00 0.00 0.00 0.00 0.00 0.00 0.00 0.00 0.00 0.00 0.00 0.00 0.00 0.00 0.00 0.01 0.03 0.06 0.04 0.02 0.01 0.03 0.08 0.09 0.04 0.01 0.01 0.03 0.04 0.07 0.05 0.01 0.01 0.01 0.01 0.01 0.02 0.05 0.06 0.02 0.00 0.00 0.00 0.00
0.14 0.14 0.03 0.00 0.00 0.00 0.00 0.00 0.00 0.00 0.00 0.00 0.00 0.00 0.00 0.00 0.00 0.00 0.00 0.00 0.01 0.03 0.07 0.08 0.06 0.03 0.02 0.05 0.07 0.05 0.02 0.01 0.03 0.03 0.04 0.03 0.00 0.02 0.01 0.05 0.06 0.03 0.05 0.06 0.03 0.01 0.00 0.00 0.00
0.13 0.08 0.02 0.00 0.00 0.00 0.00 0.00 0.00 0.00 0.00 0.00 0.00 0.00 0.00 0.00 0.00 0.00 0.00 0.00 0.01 0.02 0.05 0.04 0.03 0.02 0.02 0.02 0.04 0.03 0.01 0.00 0.01 0.01 0.03 0.01 0.00 0.00 0.01 0.04 0.07 0.04 0.05 0.04 0.04 0.02 0.02 0.02 0.00
0.11 0.03 0.02 0.01 0.00 0.00 0.00 0.00 0.00 0.00 0.00 0.00 0.00 0.00 0.00 0.00 0.00 0.00 0.00 0.00 0.00 0.01 0.02 0.02 0.02 0.03 0.03 0.01 0.01 0.01 0.01 0.01 0.01 0.02 0.05 0.02 0.00 0.01 0.03 0.05 0.09 0.08 0.03 0.03 0.05 0.04 0.03 0.04 0.01
0.04 0.01 0.00 0.00 0.00 0.00 0.00 0.00 0.00 0.00 0.00 0.00 0.00 0.00 0.00 0.00 0.00 0.00 0.00 0.00 0.00 0.01 0.02 0.02 0.03 0.04 0.06 0.02 0.01 0.01 0.00 0.00 0.02 0.05 0.03 0.01 0.00 0.02 0.05 0.07 0.12 0.09 0.03 0.05 0.08 0.03 0.02 0.04 0.01
0.04 0.01 0.00 0.00 0.00 0.00 0.00 0.00 0.00 0.00 0.00 0.00 0.00 0.00 0.00 0.00 0.00 0.00 0.00 0.01 0.01 0.05 0.06 0.07 0.09 0.10 0.08 0.05 0.04 0.04 0.01 0.01 0.01 0.01 0.01 0.00 0.00 0.02 0.05 0.04 0.06 0.04 0.05 0.08 0.04 0.03 0.03 0.05 0.01
0.01 0.01 0.00 0.00 0.00 0.00 0.00 0.00 0.00 0.00 0.00 0.00 0.00 0.00 0.00 0.00 0.00 0.00 0.00 0.01 0.02 0.06 0.11 0.18 0.17 0.17 0.14 0.10 0.07 0.07 0.04 0.01 0.01 0.00 0.01 0.01 0.01 0.02 0.05 0.03 0.02 0.03 0.05 0.06 0.06 0.07 0.05 0.07 0.02
0.01 0.01 0.00 0.00 0.00 0.00 0.00 0.00 0.00 0.00 0.00 0.00 0.00 0.00 0.00 0.00 0.00 0.00 0.00 0.02 0.03 0.07 0.16 0.21 0.20 0.24 0.22 0.15 0.09 0.11 0.05 0.02 0.01 0.00 0.01 0.02 0.01 0.01 0.05 0.04 0.02 0.07 0.10 0.07 0.06 0.04 0.04 0.06 0.04
0.00 0.00 0.00 0.00 0.00 0.00 0.00 0.00 0.00 0.00 0.00 0.00 0.00 0.00 0.00 0.00 0.00 0.00 0.00 0.01 0.01 0.06 0.12 0.12 0.16 0.32 0.29 0.16 0.17 0.14 0.06 0.03 0.01 0.01 0.02 0.04 0.01 0.01 0.06 0.06 0.01 0.03 0.09 0.06 0.03 0.04 0.08 0.04 0.03
0.00 0.00 0.00 0.00 0.00 0.00 0.00 0.00 0.00 0.00 0.00 0.00 0.00 0.00 0.00 0.00 0.00 0.00 0.00 0.01 0.02 0.07 0.10 0.12 0.14 0.14 0.14 0.18 0.12 0.08 0.07 0.03 0.02 0.01 0.01 0.02 0.04 0.02 0.04 0.05 0.03 0.02 0.08 0.09 0.04 0.04 0.04 0.03 0.05
0.00 0.00 0.00 0.00 0.00 0.00 0.00 0.00 0.00 0.00 0.00 0.00 0.00 0.00 0.00 0.00 0.00 0.00 0.00 0.01 0.03 0.07 0.10 0.11 0.19 0.15 0.13 0.15 0.12 0.10 0.10 0.06 0.04 0.04 0.04 0.09 0.07 0.03 0.03 0.03 0.07 0.06 0.08 0.09 0.04 0.04 0.02 0.04 0.05
0.00 0.00 0.00 0.00 0.00 0.00 0.00 0.00 0.00 0.00 0.00 0.00 0.00 0.00 0.00 0.00 0.00 0.00 0.01 0.03 0.04 0.05 0.08 0.11 0.17 0.24 0.25 0.26 0.19 0.11 0.10 0.10 0.07 0.08 0.09 0.13 0.11 0.06 0.05 0.04 0.09 0.04 0.04 0.13 0.10 0.07 0.02 0.05 0.04
0.00 0.00 0.00 0.00 0.00 0.00 0.00 0.00 0.00 0.00 0.00 0.00 0.00 0.00 0.00 0.00 0.00 0.00 0.00 0.01 0.01 0.03 0.05 0.09 0.14 0.22 0.29 0.30 0.21 0.13 0.08 0.14 0.16 0.15 0.11 0.13 0.14 0.10 0.09 0.07 0.06 0.04 0.04 0.14 0.16 0.12 0.04 0.04 0.01
0.00 0.00 0.00 0.00 0.00 0.00 0.00 0.00 0.00 0.00 0.00 0.00 0.00 0.00 0.00 0.00 0.00 0.00 0.00 0.00 0.00 0.01 0.02 0.04 0.11 0.11 0.11 0.12 0.11 0.08 0.05 0.12 0.22 0.20 0.13 0.12 0.16 0.16 0.11 0.08 0.05 0.03 0.01 0.03 0.06 0.12 0.10 0.04 0.01
0.00 0.00 0.00 0.00 0.00 0.00 0.00 0.00 0.00 0.00 0.00 0.00 0.00 0.00 0.00 0.00 0.00 0.00 0.00 0.00 0.00 0.00 0.01 0.01 0.02 0.01 0.02 0.05 0.09 0.08 0.04 0.10 0.22 0.22 0.14 0.18 0.25 0.20 0.10 0.08 0.08 0.06 0.03 0.02 0.03 0.10 0.11 0.06 0.02
0.00 0.00 0.00 0.00 0.00 0.00 0.00 0.00 0.00 0.00 0.00 0.00 0.00 0.00 0.00 0.00 0.00 0.00 0.00 0.00 0.00 0.00 0.00 0.00 0.00 0.00 0.00 0.02 0.06 0.05 0.04 0.12 0.16 0.18 0.16 0.23 0.29 0.20 0.10 0.09 0.10 0.15 0.14 0.08 0.04 0.05 0.05 0.06 0.05
0.00 0.00 0.00 0.00 0.00 0.00 0.00 0.00 0.00 0.00 0.00 0.00 0.00 0.00 0.00 0.00 0.00 0.00 0.00 0.00 0.00 0.00 0.00 0.00 0.00 0.00 0.00 0.00 0.01 0.01 0.04 0.11 0.09 0.10 0.19 0.23 0.27 0.21 0.15 0.14 0.15 0.16 0.16 0.17 0.14 0.07 0.03 0.03 0.04
0.00 0.00 0.00 0.00 0.00 0.00 0.00 0.00 0.00 0.00 0.00 0.00 0.00 0.00 0.00 0.00 0.00 0.00 0.00 0.00 0.00 0.01 0.00 0.00 0.00 0.00 0.00 0.00 0.01 0.01 0.03 0.09 0.08 0.05 0.14 0.22 0.16 0.11 0.08 0.10 0.12 0.13 0.13 0.12 0.11 0.06 0.03 0.02 0.02
0.00 0.00 0.00 0.00 0.00 0.00 0.00 0.00 0.00 0.00 0.00 0.00 0.00 0.00 0.00 0.00 0.00 0.00 0.00 0.00 0.00 0.01 0.01 0.01 0.01 0.01 0.01 0.02 0.03 0.02 0.03 0.05 0.06 0.05 0.04 0.06 0.10 0.09 0.05 0.04 0.07 0.10 0.11 0.10 0.07 0.03 0.04 0.02 0.02
0.00 0.00 0.00 0.00 0.00 0.00 0.00 0.00 0.00 0.00 0.00 0.00 0.00 0.00 0.00 0.00 0.00 0.00 0.00 0.01 0.01 0.01 0.01 0.02 0.02 0.03 0.05 0.12 0.09 0.04 0.02 0.02 0.03 0.05 0.08 0.06 0.10 0.14 0.13 0.11 0.11 0.11 0.08 0.07 0.07 0.08 0.09 0.06 0.04
0.01 0.01 0.01 0.00 0.00 0.00 0.00 0.00 0.00 0.00 0.00 0.00 0.00 0.00 0.00 0.00 0.00 0.00 0.00 0.02 0.02 0.02 0.02 0.03 0.01 0.02 0.07 0.18 0.21 0.12 0.04 0.04 0.08 0.09 0.09 0.14 0.21 0.25 0.17 0.12 0.13 0.11 0.08 0.08 0.09 0.12 0.15 0.13 0.10
0.03 0.03 0.04 0.03 0.02 0.01 0.01 0.00 0.00 0.00 0.00 0.00 0.00 0.00 0.00 0.00 0.00 0.00 0.01 0.01 0.01 0.01 0.01 0.02 0.01 0.01 0.04 0.11 0.12 0.05 0.03 0.05 0.10 0.14 0.08 0.09 0.12 0.13 0.11 0.10 0.11 0.10 0.10 0.11 0.16 0.21 0.18 0.13 0.07
MSLP
1007.69 1008.67 1009.89 1011.16 1012.29 1013.13 1013.57 1013.61 1013.33 1012.84 1012.31 1011.89 1011.66 1011.64 1011.79 1012.01 1012.20 1012.27 1012.17 1011.90 1011.54 1011.15 1010.84 1010.66 1010.66 1010.81 1011.07 1011.37 1011.66 1011.88 1012.04 1012.13 1012.20 1012.27 1012.37 1012.52 1012.70 1012.89 1013.05 1013.17 1013.23 1013.24 1013.21 1013.17 1013.14 1013.11 1013.11 1013.11 1013.10
1008.21 1009.37 1010.68 1011.94 1012.95 1013.59 1013.78 1013.55 1013.00 1012.30 1011.62 1011.10 1010.83 1010.82 1010.99 1011.27 1011.51 1011.64 1011.60 1011.40 1011.10 1010.79 1010.55 1010.44 1010.50 1010.70 1011.00 1011.35 1011.67 1011.93 1012.13 1012.27 1012.39 1012.50 1012.64 1012.80 1012.98 1013.14 1013.27 1013.35 1013.37 1013.34 1013.30 1013.24 1013.21 1013.20 1013.21 1013.22 1013.24
1008.87 1010.16 1011.49 1012.66 1013.50 1013.89 1013.82 1013.34 1012.58 1011.73 1010.96 1010.42 1010.15 1010.17 1010.38 1010.68 1010.96 1011.11 1011.11 1010.95 1010.71 1010.46 1010.30 1010.26 1010.39 1010.65 1010.99 1011.37 1011.72 1012.01 1012.24 1012.41 1012.55 1012.70 1012.85 1013.02 1013.19 1013.32 1013.42 1013.46 1013.45 1013.40 1013.34 1013.29 1013.27 1013.28 1013.32 1013.37 1013.41
1009.64 1010.98 1012.25 1013.27 1013.88 1014.03 1013.71 1013.02 1012.12 1011.20 1010.43 1009.92 1009.71 1009.78 1010.03 1010.35 1010.63 1010.78 1010.77 1010.64 1010.44 1010.25 1010.16 1010.19 1010.38 1010.69 1011.07 1011.46 1011.81 1012.11 1012.34 1012.52 1012.68 1012.84 1013.00 1013.17 1013.32 1013.44 1013.51 1013.53 1013.50 1013.44 1013.39 1013.36 1013.36 1013.41 1013.48 1013.57 1013.64
1010.43 1011.74 1012.89 1013.70 1014.07 1013.96 1013.44 1012.62 1011.66 1010.76 1010.06 1009.64 1009.53 1009.67 1009.96 1010.28 1010.54 1010.66 1010.63 1010.51 1010.34 1010.21 1010.18 1010.28 1010.52 1010.86 1011.24 1011.62 1011.95 1012.22 1012.43 1012.60 1012.76 1012.92 1013.09 1013.26 1013.41 1013.53 1013.59 1013.60 1013.57 1013.53 1013.49 1013.49 1013.53 1013.61 1013.71 1013.83 1013.93
1011.16 1012.36 1013.32 1013.89 1014.02 1013.70 1013.03 1012.14 1011.21 1010.40 1009.84 1009.57 1009.58 1009.79 1010.11 1010.43 1010.65 1010.73 1010.68 1010.55 1010.41 1010.33 1010.36 1010.52 1010.80 1011.15 1011.51 1011.85 1012.13 1012.35 1012.52 1012.66 1012.81 1012.97 1013.16 1013.34 1013.51 1013.63 1013.71 1013.72 1013.71 1013.68 1013.67 1013.69 1013.76 1013.87 1014.00 1014.14 1014.26
1011.75 1012.79 1013.51 1013.83 1013.73 1013.24 1012.48 1011.60 1010.76 1010.10 1009.71 1009.61 1009.75 1010.04 1010.38 1010.68 1010.85 1010.89 1010.82 1010.70 1010.59 1010.57 1010.66 1010.87 1011.17 1011.51 1011.84 1012.12 1012.33 1012.49 1012.61 1012.72 1012.86 1013.03 1013.24 1013.45 1013.64 1013.79 1013.88 1013.92 1013.92 1013.91 1013.92 1013.96 1014.05 1014.17 1014.31 1014.46 1014.58
1012.16 1012.98 1013.45 1013.54 1013.24 1012.63 1011.84 1011.02 1010.30 1009.82 1009.62 1009.67 1009.92 1010.27 1010.61 1010.88 1011.01 1011.01 1010.93 1010.84 1010.78 1010.83 1010.99 1011.24 1011.56 1011.88 1012.17 1012.38 1012.52 1012.61 1012.69 1012.78 1012.92 1013.12 1013.36 1013.61 1013.84 1014.02 1014.14 1014.19 1014.20 1014.20 1014.21 1014.26 1014.35 1014.47 1014.62 1014.76 1014.88
1012.37 1012.96 1013.19 1013.06 1012.61 1011.93 1011.15 1010.42 1009.85 1009.54 1009.49 1009.66 1009.99 1010.36 1010.69 1010.91 1011.00 1010.98 1010.92 1010.86 1010.88 1011.00 1011.23 1011.54 1011.88 1012.18 1012.42 1012.58 1012.66 1012.71 1012.75 1012.84 1013.01 1013.24 1013.53 1013.82 1014.09 1014.31 1014.44 1014.50 1014.52 1014.51 1014.52 1014.56 1014.64 1014.75 1014.88 1015.01 1015.12
1012.40 1012.77 1012.79 1012.50 1011.94 1011.23 1010.49 1009.86 1009.43 1009.25 1009.31 1009.56 1009.91 1010.26 1010.54 1010.71 1010.76 1010.73 1010.69 1010.70 1010.80 1011.01 1011.32 1011.68 1012.04 1012.34 1012.55 1012.67 1012.71 1012.74 1012.78 1012.89 1013.09 1013.38 1013.71 1014.06 1014.37 1014.60 1014.75 1014.81 1014.82 1014.80 1014.80 1014.82 1014.89 1014.99 1015.11 1015.23 1015.33
1012.29 1012.48 1012.35 1011.94 1011.33 1010.62 1009.95 1009.41 1009.08 1008.99 1009.11 1009.37 1009.68 1009.97 1010.17 1010.28 1010.29 1010.27 1010.26 1010.34 1010.52 1010.82 1011.20 1011.61 1012.00 1012.30 1012.50 1012.61 1012.65 1012.68 1012.75 1012.90 1013.15 1013.49 1013.87 1014.26 1014.60 1014.85 1015.01 1015.07 1015.07 1015.05 1015.03 1015.05 1015.11 1015.20 1015.32 1015.44 1015.53
1012.14 1012.19 1011.96 1011.48 1010.86 1010.19 1009.59 1009.13 1008.87 1008.82 1008.93 1009.14 1009.38 1009.57 1009.68 1009.71 1009.68 1009.66 1009.69 1009.83 1010.09 1010.46 1010.90 1011.35 1011.76 1012.07 1012.28 1012.39 1012.46 1012.52 1012.63 1012.83 1013.13 1013.52 1013.95 1014.37 1014.73 1015.00 1015.16 1015.23 1015.24 1015.22 1015.21 1015.23 1015.30 1015.41 1015.54 1015.67 1015.77
1012.01 1011.97 1011.69 1011.20 1010.60 1009.99 1009.46 1009.06 1008.84 1008.78 1008.85 1008.97 1009.10 1009.17 1009.19 1009.14 1009.08 1009.04 1009.10 1009.28 1009.58 1010.00 1010.47 1010.94 1011.36 1011.69 1011.91 1012.06 1012.15 1012.26 1012.42 1012.68 1013.03 1013.44 1013.90 1014.33 1014.70 1014.99 1015.17 1015.26 1015.29 1015.31 1015.34 1015.40 1015.50 1015.64 1015.80 1015.95 1016.07
1011.98 1011.90 1011.59 1011.12 1010.58 1010.04 1009.56 1009.21 1008.99 1008.90 1008.90 1008.92 1008.93 1008.90 1008.82 1008.71 1008.61 1008.57 1008.63 1008.82 1009.13 1009.55 1010.01 1010.47 1010.89 1011.22 1011.46 1011.64 1011.79 1011.95 1012.16 1012.45 1012.82 1013.25 1013.70 1014.13 1014.51 1014.80 1015.01 1015.15 1015.24 1015.32 1015.42 1015.55 1015.71 1015.91 1016.11 1016.30 1016.46
1012.08 1011.97 1011.67 1011.25 1010.76 1010.28 1009.86 1009.54 1009.31 1009.18 1009.09 1009.02 1008.94 1008.82 1008.67 1008.52 1008.39 1008.34 1008.39 1008.55 1008.83 1009.20 1009.62 1010.04 1010.43 1010.75 1011.02 1011.23 1011.42 1011.63 1011.88 1012.19 1012.56 1012.97 1013.39 1013.80 1014.17 1014.48 1014.72 1014.92 1015.10 1015.27 1015.46 1015.68 1015.93 1016.19 1016.45 1016.68 1016.88
1012.32 1012.19 1011.90 1011.52 1011.10 1010.68 1010.30 1009.99 1009.75 1009.56 1009.40 1009.26 1009.11 1008.94 1008.76 1008.59 1008.45 1008.39 1008.41 1008.53 1008.74 1009.03 1009.37 1009.72 1010.06 1010.37 1010.64 1010.88 1011.12 1011.36 1011.63 1011.94 1012.28 1012.65 1013.02 1013.39 1013.73 1014.05 1014.34 1014.62 1014.89 1015.17 1015.47 1015.79 1016.12 1016.45 1016.77 1017.06 1017.30
1012.63 1012.49 1012.23 1011.90 1011.53 1011.16 1010.81 1010.49 1010.22 1009.98 1009.77 1009.57 1009.38 1009.20 1009.02 1008.87 1008.75 1008.68 1008.67 1008.73 1008.86 1009.05 1009.28 1009.54 1009.82 1010.10 1010.38 1010.66 1010.93 1011.20 1011.48 1011.77 1012.06 1012.36 1012.66 1012.97 1013.28 1013.59 1013.93 1014.28 1014.65 1015.04 1015.44 1015.85 1016.26 1016.65 1017.02 1017.35 1017.63
1012.96 1012.81 1012.59 1012.30 1011.99 1011.66 1011.33 1011.00 1010.69 1010.39 1010.12 1009.89 1009.68 1009.50 1009.36 1009.25 1009.17 1009.11 1009.09 1009.09 1009.13 1009.21 1009.33 1009.50 1009.72 1009.98 1010.26 1010.57 1010.88 1011.18 1011.46 1011.72 1011.95 1012.17 1012.38 1012.61 1012.87 1013.18 1013.54 1013.95 1014.40 1014.88 1015.37 1015.85 1016.31 1016.74 1017.14 1017.50 1017.82
1013.21 1013.09 1012.92 1012.70 1012.45 1012.16 1011.83 1011.47 1011.10 1010.74 1010.40 1010.12 1009.90 1009.75 1009.65 1009.60 1009.58 1009.56 1009.53 1009.49 1009.46 1009.45 1009.48 1009.57 1009.73 1009.97 1010.27 1010.61 1010.96 1011.28 1011.57 1011.79 1011.96 1012.10 1012.23 1012.38 1012.59 1012.87 1013.23 1013.68 1014.18 1014.72 1015.26 1015.78 1016.26 1016.71 1017.11 1017.48 1017.83
1013.32 1013.26 1013.18 1013.06 1012.89 1012.64 1012.32 1011.91 1011.46 1011.00 1010.58 1010.23 1009.98 1009.84 1009.79 1009.81 1009.86 1009.89 1009.89 1009.85 1009.77 1009.69 1009.65 1009.68 1009.81 1010.04 1010.36 1010.73 1011.12 1011.48 1011.77 1011.98 1012.10 1012.17 1012.22 1012.29 1012.44 1012.68 1013.04 1013.49 1014.01 1014.57 1015.12 1015.64 1016.11 1016.54 1016.93 1017.30 1017.67
1013.25 1013.31 1013.37 1013.39 1013.33 1013.15 1012.82 1012.36 1011.81 1011.22 1010.67 1010.22 1009.91 1009.75 1009.73 1009.81 1009.93 1010.04 1010.09 1010.06 1009.98 1009.88 1009.80 1009.79 1009.90 1010.13 1010.47 1010.88 1011.31 1011.70 1012.01 1012.22 1012.31 1012.33 1012.33 1012.34 1012.44 1012.64 1012.96 1013.39 1013.90 1014.44 1014.97 1015.46 1015.89 1016.28 1016.63 1016.99 1017.36
1013.00 1013.24 1013.50 1013.71 1013.79 1013.69 1013.37 1012.84 1012.17 1011.43 1010.71 1010.12 1009.71 1009.50 1009.48 1009.60 1009.79 1009.98 1010.10 1010.13 1010.08 1009.98 1009.89 1009.87 1009.96 1010.20 1010.55 1010.99 1011.46 1011.89 1012.23 1012.44 1012.54 1012.54 1012.50 1012.48 1012.53 1012.69 1012.97 1013.37 1013.84 1014.33 1014.81 1015.25 1015.63 1015.97 1016.28 1016.60 1016.97
1012.64 1013.09 1013.59 1014.02 1014.27 1014.27 1013.97 1013.39 1012.58 1011.66 1010.76 1009.99 1009.44 1009.15 1009.10 1009.24 1009.48 1009.75 1009.95 1010.06 1010.06 1010.00 1009.92 1009.90 1009.99 1010.22 1010.57 1011.03 1011.51 1011.97 1012.34 1012.59 1012.70 1012.71 1012.67 1012.63 1012.66 1012.79 1013.03 1013.38 1013.80 1014.24 1014.67 1015.05 1015.37 1015.65 1015.92 1016.21 1016.56
1012.23 1012.92 1013.67 1014.34 1014.78 1014.89 1014.61 1013.97 1013.04 1011.94 1010.84 1009.88 1009.17 1008.76 1008.66 1008.79 1009.08 1009.42 1009.72 1009.91 1009.98 1009.97 1009.92 1009.90 1009.97 1010.18 1010.52 1010.96 1011.45 1011.92 1012.32 1012.59 1012.74 1012.78 1012.76 1012.74 1012.76 1012.88 1013.09 1013.40 1013.76 1014.15 1014.52 1014.85 1015.12 1015.36 1015.59 1015.84 1016.17
1011.87 1012.79 1013.77 1014.65 1015.27 1015.48 1015.23 1014.54 1013.50 1012.24 1010.95 1009.81 1008.93 1008.41 1008.23 1008.35 1008.67 1009.07 1009.45 1009.72 1009.87 1009.91 1009.89 1009.87 1009.93 1010.10 1010.40 1010.81 1011.27 1011.74 1012.15 1012.45 1012.64 1012.72 1012.75 1012.75 1012.79 1012.89 1013.09 1013.36 1013.68 1014.02 1014.35 1014.64 1014.88 1015.08 1015.28 1015.51 1015.80
1011.64 1012.73 1013.89 1014.93 1015.67 1015.96 1015.74 1015.01 1013.87 1012.48 1011.04 1009.74 1008.73 1008.10 1007.85 1007.95 1008.28 1008.73 1009.18 1009.53 1009.75 1009.85 1009.85 1009.83 1009.86 1009.98 1010.23 1010.58 1011.00 1011.44 1011.85 1012.17 1012.40 1012.53 1012.60 1012.64 1012.70 1012.81 1012.99 1013.23 1013.52 1013.83 1014.12 1014.38 1014.61 1014.80 1014.99 1015.20 1015.45
1011.57 1012.75 1014.00 1015.13 1015.93 1016.25 1016.02 1015.26 1014.06 1012.58 1011.04 1009.65 1008.54 1007.83 1007.53 1007.60 1007.94 1008.43 1008.93 1009.34 1009.62 1009.76 1009.79 1009.77 1009.77 1009.85 1010.03 1010.32 1010.68 1011.08 1011.47 1011.80 1012.05 1012.23 1012.33 1012.41 1012.50 1012.61 1012.78 1013.00 1013.26 1013.54 1013.81 1014.06 1014.27 1014.47 1014.66 1014.86 1015.09
1011.68 1012.84 1014.08 1015.18 1015.96 1016.25 1015.99 1015.20 1013.97 1012.46 1010.89 1009.45 1008.31 1007.56 1007.23 1007.29 1007.63 1008.14 1008.67 1009.13 1009.45 1009.63 1009.69 1009.68 1009.66 1009.70 1009.82 1010.05 1010.36 1010.71 1011.07 1011.40 1011.66 1011.86 1012.00 1012.11 1012.21 1012.32 1012.48 1012.67 1012.90 1013.15 1013.40 1013.64 1013.86 1014.07 1014.26 1014.46 1014.68
1011.91 1012.96 1014.07 1015.04 1015.70 1015.90 1015.58 1014.76 1013.53 1012.04 1010.50 1009.10 1007.98 1007.25 1006.93 1006.98 1007.32 1007.82 1008.37 1008.85 1009.21 1009.42 1009.51 1009.51 1009.50 1009.52 1009.62 1009.80 1010.06 1010.37 1010.70 1011.01 1011.28 1011.49 1011.64 1011.76 1011.87 1011.98 1012.11 1012.28 1012.47 1012.69 1012.91 1013.14 1013.36 1013.57 1013.78 1013.99 1014.21
1012.21 1013.05 1013.94 1014.69 1015.15 1015.20 1014.79 1013.95 1012.74 1011.33 1009.89 1008.59 1007.56 1006.89 1006.60 1006.66 1006.98 1007.47 1008.00 1008.48 1008.86 1009.10 1009.22 1009.26 1009.27 1009.31 1009.40 1009.56 1009.80 1010.08 1010.39 1010.68 1010.94 1011.15 1011.31 1011.43 1011.53 1011.63 1011.74 1011.87 1012.02 1012.19 1012.38 1012.59 1012.80 1013.01 1013.23 1013.45 1013.68
Thickness
5838 5839 5834 5821 5793 5771 5772 5784 5793 5799 5805 5815 5817 5809 5796 5787 5780 5776 5800 5807 5804 5800 5798 5796 5794 5790 5787 5783 5781 5778 5777 5775 5773 5771 5769 5767 5764 5763 5763 5762 5762 5762 5761 5760 5760 5762 5764 5765 5766
5838 5837 5824 5807 5775 5755 5769 5790 5792 5803 5812 5817 5815 5808 5796 5791 5798 5797 5801 5805 5803 5800 5798 5796 5793 5790 5786 5783 5780 5777 5774 5772 5771 5769 5767 5764 5762 5760 5759 5760 5760 5759 5759 5758 5759 5761 5762 5763 5763
5837 5833 5810 5791 5773 5762 5776 5795 5801 5814 5820 5816 5808 5807 5797 5792 5800 5800 5804 5806 5802 5799 5797 5795 5793 5789 5785 5782 5779 5775 5773 5770 5768 5765 5764 5762 5759 5757 5755 5755 5756 5757 5757 5757 5758 5760 5761 5761 5760
5832 5817 5801 5782 5777 5784 5794 5803 5813 5814 5816 5814 5807 5798 5801 5808 5808 5807 5809 5807 5802 5798 5796 5794 5791 5788 5783 5779 5775 5773 5770 5767 5765 5762 5760 5759 5756 5754 5753 5752 5753 5754 5755 5755 5756 5757 5758 5758 5757
5826 5802 5783 5773 5781 5795 5806 5812 5814 5809 5810 5808 5805 5792 5793 5809 5814 5811 5809 5806 5801 5797 5794 5791 5788 5785 5781 5777 5772 5769 5766 5764 5762 5759 5756 5755 5754 5753 5752 5751 5751 5751 5752 5753 5753 5753 5754 5754 5754
5808 5794 5773 5767 5780 5796 5807 5816 5814 5806 5805 5806 5801 5789 5792 5807 5808 5807 5807 5803 5800 5795 5791 5788 5785 5781 5778 5774 5770 5765 5762 5760 5758 5755 5752 5750 5749 5749 5748 5747 5747 5747 5748 5749 5749 5749 5750 5751 5752
5799 5784 5773 5773 5779 5789 5804 5817 5812 5804 5802 5805 5806 5787 5791 5800 5806 5807 5804 5799 5795 5792 5788 5785 5782 5778 5774 5770 5766 5763 5759 5756 5754 5752 5749 5746 5744 5743 5742 5742 5742 5742 5743 5744 5744 5746 5747 5749 5749
5804 5782 5771 5772 5778 5787 5809 5815 5816 5811 5808 5817 5811 5789 5787 5799 5806 5804 5800 5794 5791 5788 5784 5781 5779 5775 5770 5766 5763 5759 5756 5753 5750 5748 5746 5743 5740 5738 5737 5736 5737 5738 5739 5739 5740 5741 5743 5744 5745
5807 5775 5764 5779 5784 5792 5809 5808 5815 5823 5816 5815 5813 5807 5809 5809 5804 5797 5792 5788 5785 5782 5780 5777 5774 5771 5768 5764 5759 5755 5753 5750 5747 5744 5743 5740 5737 5734 5733 5733 5733 5734 5734 5734 5735 5736 5738 5739 5739
5794 5771 5780 5799 5801 5801 5807 5805 5808 5807 5801 5802 5805 5808 5813 5807 5800 5794 5789 5785 5781 5778 5776 5774 5771 5767 5765 5762 5757 5753 5750 5748 5744 5741 5740 5738 5734 5732 5730 5730 5730 5730 5729 5729 5729 5731 5733 5733 5734
5794 5782 5795 5807 5812 5812 5807 5807 5810 5800 5791 5796 5798 5799 5804 5802 5799 5796 5792 5790 5786 5782 5778 5773 5769 5765 5761 5758 5754 5750 5746 5743 5740 5737 5736 5734 5731 5729 5728 5727 5727 5727 5726 5725 5725 5727 5728 5727 5728
5790 5796 5805 5807 5815 5813 5807 5806 5803 5801 5801 5810 5811 5810 5806 5802 5799 5798 5795 5792 5789 5784 5780 5775 5769 5763 5758 5754 5750 5747 5743 5739 5736 5734 5732 5731 5728 5726 5725 5724 5724 5724 5723 5722 5721 5721 5723 5724 5725
5789 5796 5809 5811 5813 5814 5808 5802 5801 5802 5811 5813 5810 5807 5804 5803 5802 5802 5800 5795 5790 5784 5779 5774 5768 5761 5756 5750 5747 5744 5740 5736 5733 5732 5730 5728 5725 5724 5723 5722 5721 5721 5720 5719 5719 5719 5720 5722 5723
5791 5796 5802 5807 5808 5811 5802 5798 5799 5801 5811 5808 5803 5800 5800 5799 5798 5796 5794 5790 5786 5782 5777 5772 5765 5760 5754 5749 5745 5743 5739 5734 5732 5730 5729 5727 5724 5723 5723 5721 5719 5718 5718 5717 5716 5717 5718 5719 5720
5792 5787 5791 5797 5799 5802 5799 5784 5793 5804 5806 5801 5798 5797 5799 5797 5796 5794 5794 5791 5784 5777 5772 5768 5763 5758 5753 5748 5744 5743 5740 5735 5732 5730 5728 5726 5723 5722 5722 5719 5718 5717 5717 5716 5714 5715 5716 5716 5716
5781 5771 5764 5784 5795 5797 5786 5766 5790 5804 5800 5794 5793 5792 5790 5789 5791 5793 5794 5790 5785 5778 5772 5766 5762 5756 5754 5750 5744 5741 5739 5736 5733 5730 5727 5725 5723 5721 5721 5718 5717 5718 5717 5715 5713 5712 5710 5710 5711
5753 5747 5754 5772 5791 5790 5778 5767 5787 5801 5798 5790 5789 5786 5780 5778 5781 5785 5788 5786 5781 5777 5770 5762 5758 5753 5752 5750 5744 5740 5737 5734 5733 5730 5727 5724 5722 5719 5719 5718 5717 5716 5716 5714 5713 5710 5708 5706 5706
5736 5741 5748 5758 5779 5778 5767 5766 5780 5791 5794 5789 5783 5777 5773 5771 5773 5778 5781 5779 5775 5770 5764 5758 5753 5749 5746 5744 5740 5736 5732 5730 5729 5728 5725 5723 5721 5718 5717 5717 5716 5715 5713 5711 5710 5707 5705 5704 5704
5749 5744 5743 5756 5777 5770 5762 5762 5772 5784 5786 5781 5773 5770 5769 5769 5770 5772 5773 5771 5766 5761 5756 5752 5748 5744 5742 5737 5733 5728 5725 5724 5722 5722 5722 5720 5717 5715 5715 5716 5715 5714 5712 5710 5707 5703 5701 5701 5701
5744 5738 5739 5752 5769 5768 5762 5764 5772 5779 5781 5780 5774 5770 5768 5765 5764 5763 5763 5761 5758 5754 5750 5747 5743 5740 5737 5733 5730 5725 5722 5719 5718 5717 5716 5715 5713 5711 5712 5714 5714 5713 5711 5708 5705 5701 5698 5699 5699
5740 5736 5738 5743 5757 5761 5757 5748 5755 5769 5778 5778 5776 5773 5769 5763 5760 5758 5755 5753 5750 5747 5745 5742 5738 5734 5731 5728 5723 5718 5716 5713 5710 5708 5708 5710 5709 5708 5708 5710 5712 5711 5710 5707 5704 5701 5700 5697 5696
5730 5749 5749 5748 5738 5726 5739 5714 5740 5753 5760 5764 5764 5764 5763 5763 5760 5755 5751 5746 5745 5743 5741 5738 5734 5730 5727 5722 5716 5712 5708 5704 5702 5701 5701 5703 5705 5704 5703 5704 5707 5709 5708 5706 5704 5702 5701 5698 5694
5740 5753 5749 5744 5734 5722 5725 5714 5725 5745 5745 5753 5758 5760 5761 5761 5757 5751 5747 5743 5741 5739 5737 5733 5728 5723 5720 5716 5712 5708 5703 5700 5697 5697 5696 5696 5697 5697 5698 5698 5701 5702 5703 5701 5701 5701 5700 5698 5695
5752 5744 5734 5722 5712 5698 5714 5708 5712 5730 5743 5750 5756 5759 5757 5755 5751 5747 5744 5740 5735 5733 5730 5726 5720 5716 5714 5711 5708 5704 5700 5696 5693 5691 5688 5687 5688 5689 5690 5690 5692 5695 5696 5696 5696 5698 5698 5696 5695
5740 5710 5688 5688 5681 5688 5715 5710 5717 5745 5752 5752 5751 5752 5752 5750 5746 5742 5738 5733 5729 5725 5723 5719 5714 5710 5708 5705 5703 5700 5697 5695 5692 5688 5684 5681 5681 5682 5684 5685 5687 5690 5690 5691 5692 5693 5693 5694 5692
5726 5709 5683 5675 5674 5686 5711 5706 5722 5748 5753 5755 5753 5750 5749 5746 5743 5740 5736 5732 5727 5723 5719 5715 5710 5707 5703 5700 5698 5696 5694 5692 5689 5686 5683 5680 5679 5678 5679 5680 5681 5684 5685 5686 5687 5688 5689 5691 5690
5722 5708 5709 5689 5687 5683 5692 5710 5724 5740 5742 5744 5743 5743 5742 5744 5742 5739 5733 5728 5725 5721 5717 5714 5708 5704 5700 5697 5694 5692 5690 5687 5685 5683 5681 5680 5679 5678 5677 5676 5677 5678 5679 5680 5682 5682 5683 5686 5687
5731 5719 5696 5684 5673 5667 5684 5695 5695 5717 5724 5733 5736 5738 5740 5741 5739 5736 5731 5726 5723 5720 5717 5712 5707 5702 5698 5695 5692 5690 5686 5684 5682 5681 5680 5680 5680 5680 5678 5677 5675 5674 5675 5676 5677 5678 5680 5681 5683
5717 5711 5700 5682 5678 5665 5662 5682 5718 5724 5730 5732 5736 5739 5738 5738 5736 5731 5728 5725 5721 5717 5713 5708 5703 5699 5695 5693 5690 5688 5684 5681 5678 5677 5677 5677 5676 5676 5675 5675 5674 5674 5675 5676 5677 5677 5678 5678 5679
5713 5703 5687 5669 5669 5666 5659 5679 5729 5729 5733 5735 5736 5738 5738 5738 5736 5730 5726 5721 5716 5713 5709 5705 5700 5696 5694 5692 5689 5685 5682 5678 5674 5672 5672 5673 5672 5672 5671 5671 5671 5672 5674 5676 5676 5677 5677 5677 5676